Showing default

S-NET A, 43188

Orbit data source: Space-Track

S-NET A, 43188 is a payload satellite owned by TUB (DE) in SSO that was launched on Thu, 01 Feb 2018 UTC via a SOYUZ-2-1A launch vehicle from the Vostochny Cosmodrome (VOSTO). Payload-class satellites include a variety of spacecraft equipped with specific instruments for various scientific and technological missions. These include communications satellites like Starlink; space stations such as the ISS; scientific satellites like the Hubble; Earth observation satellites from companies like Planet Labs, Umbra, and HawkEye 360; GPS; miniature CubeSats for education and research; and military/defense satellites.

Loading next visibility...
Identifier
43188, 2018-014J
Orbit
SSO
Last TLE update
15 hours ago
Origin
Manufacturer
TUB
Mission
Operational Commercial Com/Tech
Bus & Motor
TUBIX10, Unknown motor
Mass
8 kg wet, 8 kg dry
Launch date (UTC)
2018-02-01 (7 years ago)
Launch vehicle
SOYUZ-2-1A
Launch site
Vostochny Cosmodrome (VOSTO)
Object type
Payload
Rocket body
Debris
Shape & HBR
Box, 0.24 m
Radar Cross Section
0.086 m², Medium (>0.1 m² and < 1m²)

Expand to show TLE details & history

TLE from 15 hours ago
0 S-NET A
1 43188U 18014J   25183.66317725  .00003756  00000-0  22225-3 0  9991
2 43188  97.5617  86.4607 0010851 134.5018 225.7101 15.12005286405860
Epoch: 2025-07-02T15:54Z
TLE epoch observation values (Epoch: 2025-07-02T15:54:58.514Z)
Latitude
-0.00002°
Longitude
-73.22415°
Altitude
538.4 km
Speed
7.59 km/s
True Right ascension
05h 45m 50s
True Declination
0° 00' 00"
Sunlit
Object was in daylight at epoch
Visualization orbit readout
Latitude
27.56894°
Longitude
111.34542°
Altitude
526.524 km
Speed
7.606 km/s
Apparent Right ascension
16h 04m 47s
Apparent Declination
-31° 09' 04"
Sunlit
Object is in full shadow
Visualization observer readout
Local Sidereal Time
18:38:37
Azimuth
212.774° SW
Elevation
10.489°
Doppler factor
1
Orbital elements
Apogee altitude
534.561 km
Perigee altitude
519.576 km
Semi-major axis
6,905.205 km
Eccentricity
0.00109
Inclination
97.5617°
RAAN
86.4607°
Arg. of periapsis
134.5018°
True anomaly
Unknown
Mean anomaly
225.7101°
Eccentric anomaly
Unknown
Mean motion
3.78249 °/min
Orbital period
95.18 mins
BSTAR
0.00022225
Loading maneuver chart data...
Loading SW <> Apogee altitude chart data...
Loading historical data...
Loading historical data...
Loading historical data...
Loading historical data...
Loading historical data...
Loading historical data...
Loading historical data...

S-NET A Visibility forecast

Observer location: undefined°, undefined°

Span
Click to sort rows by Start time (UTC) header in descending order
Start Az.
Max El. time (UTC)
Max El. Az.
Max El.
End time (UTC)
End Az.
6 mins2025-07-03 17:27:52.885Z158.673° S2025-07-03 17:30:52.885Z25.013° NE42.258°2025-07-03 17:33:52.885Z352.243° N
5 mins2025-07-04 06:36:52.885Z359.304° N2025-07-04 06:38:52.885Z286.116° WNW42.081°2025-07-04 06:41:52.885Z204.923° SW
|